sat.trackr.live / text

‹ back to catalog

STARLINK-37101

NORAD 68234 · 2026-054C

PAYLOAD ACTIVE UNKNOWN

§ Identity

Operator
Country
US
Launch date
2026-03-17
Launch site
AFETR
Launch vehicle
Mass (kg)
RCS (m²)

Purposes: comms

External: N2YO · Heavens-Above · Gunter

§ Orbital elements

Epoch: 2026-09-20T01:42:09.673056Z

Period
93.85 min
Inclination
53.1585°
Eccentricity
0.0001781
Mean motion
15.34406417 rev/d
Perigee alt
461.5 km
Apogee alt
463.9 km
Semi-major
6,840.8 km
B*
5.2229e-4
RAAN
103.9835°
Arg perigee
76.1725°
Mean anomaly
283.9475°
Rev number
2,889

§ Raw data

STARLINK-371011 68234U 26054C   26263.07094529  .00017314  00000+0  52229-3 0  99932 68234  53.1585 103.9835 0001781  76.1725 283.9475 15.34406417 28896

JSON: /api/v1/satellites/68234 · /tle

For live sub-satellite position, see the globe view (requires WebGL).

§ Visibility from observer

Set your observer location to see the next 7 days of passes ≥ 10°. The values pass through the URL so the page stays shareable.

No JS? Fill the form by hand. The geolocation button needs JavaScript.